Year,Month,Day,Hour,Minute,Value (Times are PST for temperature in C)
2009,09,20,00,00,11.10
2009,09,20,00,01,11.10
2009,09,20,00,02,11.10
2009,09,20,00,03,11.10
2009,09,20,00,04,11.10
2009,09,20,00,05,11.00
2009,09,20,00,06,11.00
2009,09,20,00,07,11.00
2009,09,20,00,08,11.00
2009,09,20,00,09,11.00
2009,09,20,00,10,11.00
2009,09,20,00,11,11.00
2009,09,20,00,12,11.00
2009,09,20,00,13,10.90
2009,09,20,00,14,10.90
2009,09,20,00,15,10.90
2009,09,20,00,16,10.90
2009,09,20,00,17,10.90
2009,09,20,00,18,10.90
2009,09,20,00,19,10.90
2009,09,20,00,20,10.90
2009,09,20,00,21,10.90
2009,09,20,00,22,10.90
2009,09,20,00,23,10.90
2009,09,20,00,24,10.90
2009,09,20,00,25,10.80
2009,09,20,00,26,10.80
2009,09,20,00,27,10.80
2009,09,20,00,28,10.80
2009,09,20,00,29,10.80
2009,09,20,00,30,10.80
2009,09,20,00,31,10.80
2009,09,20,00,32,10.80
2009,09,20,00,33,10.80
2009,09,20,00,34,10.80
2009,09,20,00,35,10.70
2009,09,20,00,36,10.70
2009,09,20,00,37,10.70
2009,09,20,00,38,10.70
2009,09,20,00,39,10.70
2009,09,20,00,40,10.70
2009,09,20,00,41,10.70
2009,09,20,00,42,10.80
2009,09,20,00,43,10.80
2009,09,20,00,44,10.80
2009,09,20,00,45,10.80
2009,09,20,00,46,10.80
2009,09,20,00,47,10.80
2009,09,20,00,48,10.80
2009,09,20,00,49,10.80
2009,09,20,00,50,10.80
2009,09,20,00,51,10.80
2009,09,20,00,52,10.80
2009,09,20,00,53,10.70
2009,09,20,00,54,10.70
2009,09,20,00,55,10.70
2009,09,20,00,56,10.70
2009,09,20,00,57,10.70
2009,09,20,00,58,10.70
2009,09,20,00,59,10.70
2009,09,20,01,00,10.60
2009,09,20,01,01,10.60
2009,09,20,01,02,10.60
2009,09,20,01,03,10.60
2009,09,20,01,04,10.60
2009,09,20,01,05,10.60
2009,09,20,01,06,10.60
2009,09,20,01,07,10.50
2009,09,20,01,08,10.50
2009,09,20,01,09,10.50
2009,09,20,01,10,10.50
2009,09,20,01,11,10.50
2009,09,20,01,12,10.50
2009,09,20,01,13,10.50
2009,09,20,01,14,10.50
2009,09,20,01,15,10.50
2009,09,20,01,16,10.50
2009,09,20,01,17,10.50
2009,09,20,01,18,10.50
2009,09,20,01,19,10.50
2009,09,20,01,20,10.50
2009,09,20,01,21,10.50
2009,09,20,01,22,10.50
2009,09,20,01,23,10.60
2009,09,20,01,24,10.60
2009,09,20,01,25,10.60
2009,09,20,01,26,10.50
2009,09,20,01,27,10.50
2009,09,20,01,28,10.50
2009,09,20,01,29,10.50
2009,09,20,01,30,10.50
2009,09,20,01,31,10.50
2009,09,20,01,32,10.50
2009,09,20,01,33,10.50
2009,09,20,01,34,10.50
2009,09,20,01,35,10.50
2009,09,20,01,36,10.50
2009,09,20,01,37,10.50
2009,09,20,01,38,10.50
2009,09,20,01,39,10.50
2009,09,20,01,40,10.50
2009,09,20,01,41,10.50
2009,09,20,01,42,10.50
2009,09,20,01,43,10.50
2009,09,20,01,44,10.50
2009,09,20,01,45,10.50
2009,09,20,01,46,10.50
2009,09,20,01,47,10.50
2009,09,20,01,48,10.40
2009,09,20,01,49,10.40
2009,09,20,01,50,10.40
2009,09,20,01,51,10.40
2009,09,20,01,52,10.40
2009,09,20,01,53,10.40
2009,09,20,01,54,10.40
2009,09,20,01,55,10.40
2009,09,20,01,56,10.40
2009,09,20,01,57,10.40
2009,09,20,01,58,10.40
2009,09,20,01,59,10.40
2009,09,20,02,00,10.40
2009,09,20,02,01,10.40
2009,09,20,02,02,10.40
2009,09,20,02,03,10.40
2009,09,20,02,04,10.40
2009,09,20,02,05,10.40
2009,09,20,02,06,10.40
2009,09,20,02,07,10.40
2009,09,20,02,08,10.40
2009,09,20,02,09,10.30
2009,09,20,02,10,10.30
2009,09,20,02,11,10.30
2009,09,20,02,12,10.30
2009,09,20,02,13,10.30
2009,09,20,02,14,10.30
2009,09,20,02,15,10.30
2009,09,20,02,16,10.30
2009,09,20,02,17,10.30
2009,09,20,02,18,10.30
2009,09,20,02,19,10.20
2009,09,20,02,20,10.20
2009,09,20,02,21,10.20
2009,09,20,02,22,10.20
2009,09,20,02,23,10.20
2009,09,20,02,24,10.20
2009,09,20,02,25,10.20
2009,09,20,02,26,10.20
2009,09,20,02,27,10.20
2009,09,20,02,28,10.20
2009,09,20,02,29,10.20
2009,09,20,02,30,10.20
2009,09,20,02,31,10.20
2009,09,20,02,32,10.20
2009,09,20,02,33,10.20
2009,09,20,02,34,10.20
2009,09,20,02,35,10.20
2009,09,20,02,36,10.20
2009,09,20,02,37,10.20
2009,09,20,02,38,10.20
2009,09,20,02,39,10.20
2009,09,20,02,40,10.20
2009,09,20,02,41,10.20
2009,09,20,02,42,10.20
2009,09,20,02,43,10.20
2009,09,20,02,44,10.30
2009,09,20,02,45,10.30
2009,09,20,02,46,10.30
2009,09,20,02,47,10.30
2009,09,20,02,48,10.30
2009,09,20,02,49,10.30
2009,09,20,02,50,10.30
2009,09,20,02,51,10.30
2009,09,20,02,52,10.20
2009,09,20,02,53,10.20
2009,09,20,02,54,10.20
2009,09,20,02,55,10.20
2009,09,20,02,56,10.20
2009,09,20,02,57,10.20
2009,09,20,02,58,10.20
2009,09,20,02,59,10.20
2009,09,20,03,00,10.20
2009,09,20,03,01,10.10
2009,09,20,03,02,10.10
2009,09,20,03,03,10.10
2009,09,20,03,04,10.10
2009,09,20,03,05,10.10
2009,09,20,03,06,10.10
2009,09,20,03,07,10.10
2009,09,20,03,08,10.00
2009,09,20,03,09,10.00
2009,09,20,03,10,10.00
2009,09,20,03,11,10.00
2009,09,20,03,12,9.90
2009,09,20,03,13,9.90
2009,09,20,03,14,9.90
2009,09,20,03,15,9.90
2009,09,20,03,16,9.90
2009,09,20,03,17,9.90
2009,09,20,03,18,9.80
2009,09,20,03,19,9.80
2009,09,20,03,20,9.80
2009,09,20,03,21,9.80
2009,09,20,03,22,9.80
2009,09,20,03,23,9.80
2009,09,20,03,24,9.70
2009,09,20,03,25,9.70
2009,09,20,03,26,9.70
2009,09,20,03,27,9.70
2009,09,20,03,28,9.70
2009,09,20,03,29,9.70
2009,09,20,03,30,9.60
2009,09,20,03,31,9.60
2009,09,20,03,32,9.60
2009,09,20,03,33,9.60
2009,09,20,03,34,9.60
2009,09,20,03,35,9.60
2009,09,20,03,36,9.60
2009,09,20,03,37,9.50
2009,09,20,03,38,9.50
2009,09,20,03,39,9.50
2009,09,20,03,40,9.40
2009,09,20,03,41,9.40
2009,09,20,03,42,9.40
2009,09,20,03,43,9.40
2009,09,20,03,44,9.40
2009,09,20,03,45,9.30
2009,09,20,03,46,9.30
2009,09,20,03,47,9.30
2009,09,20,03,48,9.30
2009,09,20,03,49,9.30
2009,09,20,03,50,9.30
2009,09,20,03,51,9.30
2009,09,20,03,52,9.30
2009,09,20,03,53,9.20
2009,09,20,03,54,9.20
2009,09,20,03,55,9.20
2009,09,20,03,56,9.20
2009,09,20,03,57,9.20
2009,09,20,03,58,9.20
2009,09,20,03,59,9.20
2009,09,20,04,00,9.20
2009,09,20,04,01,9.10
2009,09,20,04,02,9.10
2009,09,20,04,03,9.10
2009,09,20,04,04,9.10
2009,09,20,04,05,9.10
2009,09,20,04,06,9.10
2009,09,20,04,07,9.10
2009,09,20,04,08,9.10
2009,09,20,04,09,9.10
2009,09,20,04,10,9.00
2009,09,20,04,11,9.00
2009,09,20,04,12,9.00
2009,09,20,04,13,9.00
2009,09,20,04,14,9.00
2009,09,20,04,15,9.00
2009,09,20,04,16,9.00
2009,09,20,04,17,9.00
2009,09,20,04,18,9.00
2009,09,20,04,19,8.90
2009,09,20,04,20,8.90
2009,09,20,04,21,8.90
2009,09,20,04,22,8.90
2009,09,20,04,23,8.90
2009,09,20,04,24,8.90
2009,09,20,04,25,8.90
2009,09,20,04,26,8.90
2009,09,20,04,27,8.90
2009,09,20,04,28,8.90
2009,09,20,04,29,8.90
2009,09,20,04,30,8.90
2009,09,20,04,31,8.80
2009,09,20,04,32,8.80
2009,09,20,04,33,8.80
2009,09,20,04,34,8.80
2009,09,20,04,35,8.80
2009,09,20,04,36,8.80
2009,09,20,04,37,8.80
2009,09,20,04,38,8.80
2009,09,20,04,39,8.80
2009,09,20,04,40,8.80
2009,09,20,04,41,8.80
2009,09,20,04,42,8.80
2009,09,20,04,43,8.80
2009,09,20,04,44,8.80
2009,09,20,04,45,8.80
2009,09,20,04,46,8.70
2009,09,20,04,47,8.70
2009,09,20,04,48,8.70
2009,09,20,04,49,8.70
2009,09,20,04,50,8.70
2009,09,20,04,51,8.70
2009,09,20,04,52,8.70
2009,09,20,04,53,8.60
2009,09,20,04,54,8.60
2009,09,20,04,55,8.60
2009,09,20,04,56,8.60
2009,09,20,04,57,8.60
2009,09,20,04,58,8.60
2009,09,20,04,59,8.60
2009,09,20,05,00,8.60
2009,09,20,05,01,8.50
2009,09,20,05,02,8.50
2009,09,20,05,03,8.50
2009,09,20,05,04,8.50
2009,09,20,05,05,8.50
2009,09,20,05,06,8.50
2009,09,20,05,07,8.50
2009,09,20,05,08,8.40
2009,09,20,05,09,8.40
2009,09,20,05,10,8.40
2009,09,20,05,11,8.40
2009,09,20,05,12,8.40
2009,09,20,05,13,8.40
2009,09,20,05,14,8.40
2009,09,20,05,15,8.40
2009,09,20,05,16,8.40
2009,09,20,05,17,8.30
2009,09,20,05,18,8.30
2009,09,20,05,19,8.30
2009,09,20,05,20,8.30
2009,09,20,05,21,8.30
2009,09,20,05,22,8.30
2009,09,20,05,23,8.30
2009,09,20,05,24,8.30
2009,09,20,05,25,8.30
2009,09,20,05,26,8.30
2009,09,20,05,27,8.30
2009,09,20,05,28,8.30
2009,09,20,05,29,8.30
2009,09,20,05,30,8.30
2009,09,20,05,31,8.30
2009,09,20,05,32,8.30
2009,09,20,05,33,8.30
2009,09,20,05,34,8.20
2009,09,20,05,35,8.20
2009,09,20,05,36,8.20
2009,09,20,05,37,8.20
2009,09,20,05,38,8.20
2009,09,20,05,39,8.20
2009,09,20,05,40,8.20
2009,09,20,05,41,8.20
2009,09,20,05,42,8.20
2009,09,20,05,43,8.20
2009,09,20,05,44,8.20
2009,09,20,05,45,8.10
2009,09,20,05,46,8.10
2009,09,20,05,47,8.10
2009,09,20,05,48,8.10
2009,09,20,05,49,8.10
2009,09,20,05,50,8.10
2009,09,20,05,51,8.10
2009,09,20,05,52,8.10
2009,09,20,05,53,8.10
2009,09,20,05,54,8.10
2009,09,20,05,55,8.10
2009,09,20,05,56,8.10
2009,09,20,05,57,8.10
2009,09,20,05,58,8.00
2009,09,20,05,59,8.00
2009,09,20,06,00,8.00
2009,09,20,06,01,8.00
2009,09,20,06,02,8.00
2009,09,20,06,03,8.00
2009,09,20,06,04,7.90
2009,09,20,06,05,7.90
2009,09,20,06,06,7.90
2009,09,20,06,07,7.90
2009,09,20,06,08,7.90
2009,09,20,06,09,7.90
2009,09,20,06,10,7.90
2009,09,20,06,11,7.90
2009,09,20,06,12,7.90
2009,09,20,06,13,7.90
2009,09,20,06,14,7.90
2009,09,20,06,15,7.90
2009,09,20,06,16,7.90
2009,09,20,06,17,7.90
2009,09,20,06,18,7.90
2009,09,20,06,19,7.90
2009,09,20,06,20,7.90
2009,09,20,06,21,7.80
2009,09,20,06,22,7.80
2009,09,20,06,23,7.80
2009,09,20,06,24,7.80
2009,09,20,06,25,7.80
2009,09,20,06,26,7.80
2009,09,20,06,27,7.80
2009,09,20,06,28,7.80
2009,09,20,06,29,7.80
2009,09,20,06,30,7.80
2009,09,20,06,31,7.80
2009,09,20,06,32,7.70
2009,09,20,06,33,7.70
2009,09,20,06,34,7.70
2009,09,20,06,35,7.70
2009,09,20,06,36,7.70
2009,09,20,06,37,7.70
2009,09,20,06,38,7.70
2009,09,20,06,39,7.70
2009,09,20,06,40,7.70
2009,09,20,06,41,7.70
2009,09,20,06,42,7.70
2009,09,20,06,43,7.70
2009,09,20,06,44,7.70
2009,09,20,06,45,7.70
2009,09,20,06,46,7.70
2009,09,20,06,47,7.70
2009,09,20,06,48,7.70
2009,09,20,06,49,7.70
2009,09,20,06,50,7.70
2009,09,20,06,51,7.60
2009,09,20,06,52,7.60
2009,09,20,06,53,7.60
2009,09,20,06,54,7.60
2009,09,20,06,55,7.60
2009,09,20,06,56,7.60
2009,09,20,06,57,7.60
2009,09,20,06,58,7.60
2009,09,20,06,59,7.60
2009,09,20,07,00,7.60
2009,09,20,07,01,7.60
2009,09,20,07,02,7.60
2009,09,20,07,03,7.60
2009,09,20,07,04,7.60
2009,09,20,07,05,7.60
2009,09,20,07,06,7.60
2009,09,20,07,07,7.60
2009,09,20,07,08,7.60
2009,09,20,07,09,7.60
2009,09,20,07,10,7.60
2009,09,20,07,11,7.60
2009,09,20,07,12,7.60
2009,09,20,07,13,7.60
2009,09,20,07,14,7.60
2009,09,20,07,15,7.60
2009,09,20,07,16,7.60
2009,09,20,07,17,7.60
2009,09,20,07,18,7.60
2009,09,20,07,19,7.60
2009,09,20,07,20,7.60
2009,09,20,07,21,7.60
2009,09,20,07,22,7.60
2009,09,20,07,23,7.60
2009,09,20,07,24,7.60
2009,09,20,07,25,7.60
2009,09,20,07,26,7.60
2009,09,20,07,27,7.60
2009,09,20,07,28,7.60
2009,09,20,07,29,7.60
2009,09,20,07,30,7.60
2009,09,20,07,31,7.60
2009,09,20,07,32,7.60
2009,09,20,07,33,7.60
2009,09,20,07,34,7.60
2009,09,20,07,35,7.60
2009,09,20,07,36,7.60
2009,09,20,07,37,7.60
2009,09,20,07,38,7.60
2009,09,20,07,39,7.60
2009,09,20,07,40,7.60
2009,09,20,07,41,7.60
2009,09,20,07,42,7.50
2009,09,20,07,43,7.50
2009,09,20,07,44,7.50
2009,09,20,07,45,7.50
2009,09,20,07,46,7.50
2009,09,20,07,47,7.50
2009,09,20,07,48,7.50
2009,09,20,07,49,7.50
2009,09,20,07,50,7.50
2009,09,20,07,51,7.50
2009,09,20,07,52,7.50
2009,09,20,07,53,7.50
2009,09,20,07,54,7.50
2009,09,20,07,55,7.50
2009,09,20,07,56,7.50
2009,09,20,07,57,7.50
2009,09,20,07,58,7.50
2009,09,20,07,59,7.50
2009,09,20,08,00,7.50
2009,09,20,08,01,7.60
2009,09,20,08,02,7.60
2009,09,20,08,03,7.60
2009,09,20,08,04,7.60
2009,09,20,08,05,7.60
2009,09,20,08,06,7.60
2009,09,20,08,07,7.60
2009,09,20,08,08,7.60
2009,09,20,08,09,7.60
2009,09,20,08,10,7.60
2009,09,20,08,11,7.60
2009,09,20,08,12,7.60
2009,09,20,08,13,7.60
2009,09,20,08,14,7.60
2009,09,20,08,15,7.60
2009,09,20,08,16,7.60
2009,09,20,08,17,7.70
2009,09,20,08,18,7.70
2009,09,20,08,19,7.70
2009,09,20,08,20,7.70
2009,09,20,08,21,7.70
2009,09,20,08,22,7.70
2009,09,20,08,23,7.70
2009,09,20,08,24,7.70
2009,09,20,08,25,7.70
2009,09,20,08,26,7.70
2009,09,20,08,27,7.70
2009,09,20,08,28,7.70
2009,09,20,08,29,7.70
2009,09,20,08,30,7.70
2009,09,20,08,31,7.80
2009,09,20,08,32,7.80
2009,09,20,08,33,7.80
2009,09,20,08,34,7.80
2009,09,20,08,35,7.80
2009,09,20,08,36,7.80
2009,09,20,08,37,7.80
2009,09,20,08,38,7.80
2009,09,20,08,39,7.90
2009,09,20,08,40,7.90
2009,09,20,08,41,7.90
2009,09,20,08,42,7.90
2009,09,20,08,43,8.00
2009,09,20,08,44,8.00
2009,09,20,08,45,8.00
2009,09,20,08,46,8.10
2009,09,20,08,47,8.10
2009,09,20,08,48,8.10
2009,09,20,08,49,8.10
2009,09,20,08,50,8.20
2009,09,20,08,51,8.20
2009,09,20,08,52,8.20
2009,09,20,08,53,8.20
2009,09,20,08,54,8.20
2009,09,20,08,55,8.20
2009,09,20,08,56,8.20
2009,09,20,08,57,8.30
2009,09,20,08,58,8.30
2009,09,20,08,59,8.30
2009,09,20,09,00,8.30
2009,09,20,09,01,8.30
2009,09,20,09,02,8.30
2009,09,20,09,03,8.40
2009,09,20,09,04,8.40
2009,09,20,09,05,8.40
2009,09,20,09,06,8.40
2009,09,20,09,07,8.40
2009,09,20,09,08,8.40
2009,09,20,09,09,8.40
2009,09,20,09,10,8.50
2009,09,20,09,11,8.50
2009,09,20,09,12,8.50
2009,09,20,09,13,8.60
2009,09,20,09,14,8.60
2009,09,20,09,15,8.60
2009,09,20,09,16,8.60
2009,09,20,09,17,8.70
2009,09,20,09,18,8.70
2009,09,20,09,19,8.70
2009,09,20,09,20,8.80
2009,09,20,09,21,8.80
2009,09,20,09,22,8.90
2009,09,20,09,23,8.90
2009,09,20,09,24,8.90
2009,09,20,09,25,9.00
2009,09,20,09,26,9.10
2009,09,20,09,27,9.10
2009,09,20,09,28,9.10
2009,09,20,09,29,9.20
2009,09,20,09,30,9.20
2009,09,20,09,31,9.20
2009,09,20,09,32,9.20
2009,09,20,09,33,9.30
2009,09,20,09,34,9.30
2009,09,20,09,35,9.30
2009,09,20,09,36,9.30
2009,09,20,09,37,9.40
2009,09,20,09,38,9.40
2009,09,20,09,39,9.40
2009,09,20,09,40,9.50
2009,09,20,09,41,9.50
2009,09,20,09,42,9.60
2009,09,20,09,43,9.60
2009,09,20,09,44,9.60
2009,09,20,09,45,9.70
2009,09,20,09,46,9.70
2009,09,20,09,47,9.70
2009,09,20,09,48,9.80
2009,09,20,09,49,9.80
2009,09,20,09,50,9.80
2009,09,20,09,51,9.90
2009,09,20,09,52,9.90
2009,09,20,09,53,10.00
2009,09,20,09,54,10.00
2009,09,20,09,55,10.10
2009,09,20,09,56,10.10
2009,09,20,09,57,10.20
2009,09,20,09,58,10.20
2009,09,20,09,59,10.30
2009,09,20,10,00,10.30
2009,09,20,10,01,10.40
2009,09,20,10,02,10.40
2009,09,20,10,03,10.50
2009,09,20,10,04,10.50
2009,09,20,10,05,10.60
2009,09,20,10,06,10.60
2009,09,20,10,07,10.70
2009,09,20,10,08,10.70
2009,09,20,10,09,10.80
2009,09,20,10,10,10.80
2009,09,20,10,11,10.90
2009,09,20,10,12,10.90
2009,09,20,10,13,11.00
2009,09,20,10,14,11.00
2009,09,20,10,15,11.10
2009,09,20,10,16,11.10
2009,09,20,10,17,11.20
2009,09,20,10,18,11.20
2009,09,20,10,19,11.20
2009,09,20,10,20,11.30
2009,09,20,10,21,11.30
2009,09,20,10,22,11.30
2009,09,20,10,23,11.30
2009,09,20,10,24,11.30
2009,09,20,10,25,11.30
2009,09,20,10,26,11.40
2009,09,20,10,27,11.40
2009,09,20,10,28,11.40
2009,09,20,10,29,11.50
2009,09,20,10,30,11.50
2009,09,20,10,31,11.50
2009,09,20,10,32,11.60
2009,09,20,10,33,11.60
2009,09,20,10,34,11.70
2009,09,20,10,35,11.70
2009,09,20,10,36,11.70
2009,09,20,10,37,11.70
2009,09,20,10,38,11.70
2009,09,20,10,39,11.70
2009,09,20,10,40,11.70
2009,09,20,10,41,11.80
2009,09,20,10,42,11.80
2009,09,20,10,43,11.80
2009,09,20,10,44,11.80
2009,09,20,10,45,11.80
2009,09,20,10,46,11.80
2009,09,20,10,47,11.80
2009,09,20,10,48,11.80
2009,09,20,10,49,11.80
2009,09,20,10,50,11.80
2009,09,20,10,51,11.80
2009,09,20,10,52,11.80
2009,09,20,10,53,11.80
2009,09,20,10,54,11.80
2009,09,20,10,55,11.80
2009,09,20,10,56,11.80
2009,09,20,10,57,11.80
2009,09,20,10,58,11.90
2009,09,20,10,59,11.90
2009,09,20,11,00,11.90
2009,09,20,11,01,11.90
2009,09,20,11,02,11.90
2009,09,20,11,03,12.00
2009,09,20,11,04,12.00
2009,09,20,11,05,12.10
2009,09,20,11,06,12.10
2009,09,20,11,07,12.10
2009,09,20,11,08,12.10
2009,09,20,11,09,12.20
2009,09,20,11,10,12.20
2009,09,20,11,11,12.30
2009,09,20,11,12,12.30
2009,09,20,11,13,12.30
2009,09,20,11,14,12.40
2009,09,20,11,15,12.40
2009,09,20,11,16,12.50
2009,09,20,11,17,12.50
2009,09,20,11,18,12.60
2009,09,20,11,19,12.60
2009,09,20,11,20,12.60
2009,09,20,11,21,12.70
2009,09,20,11,22,12.80
2009,09,20,11,23,12.80
2009,09,20,11,24,12.90
2009,09,20,11,25,13.00
2009,09,20,11,26,13.10
2009,09,20,11,27,13.20
2009,09,20,11,28,13.20
2009,09,20,11,29,13.30
2009,09,20,11,30,13.40
2009,09,20,11,31,13.50
2009,09,20,11,32,13.60
2009,09,20,11,33,13.70
2009,09,20,11,34,13.80
2009,09,20,11,35,13.80
2009,09,20,11,36,13.90
2009,09,20,11,37,14.00
2009,09,20,11,38,14.10
2009,09,20,11,39,14.20
2009,09,20,11,40,14.20
2009,09,20,11,41,14.30
2009,09,20,11,42,14.30
2009,09,20,11,43,14.40
2009,09,20,11,44,14.50
2009,09,20,11,45,14.60
2009,09,20,11,46,14.70
2009,09,20,11,47,14.80
2009,09,20,11,48,14.90
2009,09,20,11,49,15.00
2009,09,20,11,50,15.00
2009,09,20,11,51,15.00
2009,09,20,11,52,15.00
2009,09,20,11,53,15.00
2009,09,20,11,54,15.00
2009,09,20,11,55,15.00
2009,09,20,11,56,15.00
2009,09,20,11,57,15.00
2009,09,20,11,58,15.00
2009,09,20,11,59,15.00
2009,09,20,12,00,15.00
2009,09,20,12,01,15.00
2009,09,20,12,02,15.00
2009,09,20,12,03,15.00
2009,09,20,12,04,15.00
2009,09,20,12,05,15.10
2009,09,20,12,06,15.20
2009,09,20,12,07,15.30
2009,09,20,12,08,15.40
2009,09,20,12,09,15.50
2009,09,20,12,10,15.60
2009,09,20,12,11,15.60
2009,09,20,12,12,15.70
2009,09,20,12,13,15.80
2009,09,20,12,14,15.80
2009,09,20,12,15,15.90
2009,09,20,12,16,16.00
2009,09,20,12,17,16.10
2009,09,20,12,18,16.20
2009,09,20,12,19,16.30
2009,09,20,12,20,16.30
2009,09,20,12,21,16.40
2009,09,20,12,22,16.40
2009,09,20,12,23,16.40
2009,09,20,12,24,16.40
2009,09,20,12,25,16.50
2009,09,20,12,26,16.50
2009,09,20,12,27,16.40
2009,09,20,12,28,16.40
2009,09,20,12,29,16.40
2009,09,20,12,30,16.40
2009,09,20,12,31,16.40
2009,09,20,12,32,16.40
2009,09,20,12,33,16.40
2009,09,20,12,34,16.40
2009,09,20,12,35,16.40
2009,09,20,12,36,16.40
2009,09,20,12,37,16.40
2009,09,20,12,38,16.30
2009,09,20,12,39,16.30
2009,09,20,12,40,16.30
2009,09,20,12,41,16.40
2009,09,20,12,42,16.40
2009,09,20,12,43,16.40
2009,09,20,12,44,16.40
2009,09,20,12,45,16.40
2009,09,20,12,46,16.50
2009,09,20,12,47,16.50
2009,09,20,12,48,16.50
2009,09,20,12,49,16.60
2009,09,20,12,50,16.60
2009,09,20,12,51,16.60
2009,09,20,12,52,16.60
2009,09,20,12,53,16.60
2009,09,20,12,54,16.60
2009,09,20,12,55,16.70
2009,09,20,12,56,16.70
2009,09,20,12,57,16.70
2009,09,20,12,58,16.60
2009,09,20,12,59,16.60
2009,09,20,13,00,16.60
2009,09,20,13,01,16.70
2009,09,20,13,02,16.70
2009,09,20,13,03,16.70
2009,09,20,13,04,16.70
2009,09,20,13,05,16.70
2009,09,20,13,06,16.70
2009,09,20,13,07,16.70
2009,09,20,13,08,16.70
2009,09,20,13,09,16.80
2009,09,20,13,10,16.80
2009,09,20,13,11,16.80
2009,09,20,13,12,16.80
2009,09,20,13,13,16.80
2009,09,20,13,14,16.90
2009,09,20,13,15,16.90
2009,09,20,13,16,16.90
2009,09,20,13,17,16.90
2009,09,20,13,18,17.00
2009,09,20,13,19,17.10
2009,09,20,13,20,17.10
2009,09,20,13,21,17.20
2009,09,20,13,22,17.20
2009,09,20,13,23,17.30
2009,09,20,13,24,17.30
2009,09,20,13,25,17.40
2009,09,20,13,26,17.40
2009,09,20,13,27,17.40
2009,09,20,13,28,17.40
2009,09,20,13,29,17.40
2009,09,20,13,30,17.40
2009,09,20,13,31,17.50
2009,09,20,13,32,17.50
2009,09,20,13,33,17.60
2009,09,20,13,34,17.70
2009,09,20,13,35,17.70
2009,09,20,13,36,17.70
2009,09,20,13,37,17.70
2009,09,20,13,38,17.80
2009,09,20,13,39,17.80
2009,09,20,13,40,17.80
2009,09,20,13,41,17.90
2009,09,20,13,42,17.90
2009,09,20,13,43,17.90
2009,09,20,13,44,17.90
2009,09,20,13,45,18.00
2009,09,20,13,46,18.00
2009,09,20,13,47,18.00
2009,09,20,13,48,18.10
2009,09,20,13,49,18.10
2009,09,20,13,50,18.20
2009,09,20,13,51,18.20
2009,09,20,13,52,18.20
2009,09,20,13,53,18.20
2009,09,20,13,54,18.20
2009,09,20,13,55,18.20
2009,09,20,13,56,18.20
2009,09,20,13,57,18.20
2009,09,20,13,58,18.20
2009,09,20,13,59,18.20
2009,09,20,14,00,18.10
2009,09,20,14,01,18.00
2009,09,20,14,02,18.00
2009,09,20,14,03,17.90
2009,09,20,14,04,17.90
2009,09,20,14,05,17.80
2009,09,20,14,06,17.80
2009,09,20,14,07,17.70
2009,09,20,14,08,17.60
2009,09,20,14,09,17.50
2009,09,20,14,10,17.50
2009,09,20,14,11,17.40
2009,09,20,14,12,17.30
2009,09,20,14,13,17.30
2009,09,20,14,14,17.30
2009,09,20,14,15,17.20
2009,09,20,14,16,17.20
2009,09,20,14,17,17.20
2009,09,20,14,18,17.20
2009,09,20,14,19,17.20
2009,09,20,14,20,17.30
2009,09,20,14,21,17.40
2009,09,20,14,22,17.40
2009,09,20,14,23,17.50
2009,09,20,14,24,17.60
2009,09,20,14,25,17.70
2009,09,20,14,26,17.70
2009,09,20,14,27,17.80
2009,09,20,14,28,17.90
2009,09,20,14,29,18.10
2009,09,20,14,30,18.20
2009,09,20,14,31,18.30
2009,09,20,14,32,18.40
2009,09,20,14,33,18.50
2009,09,20,14,34,18.60
2009,09,20,14,35,18.60
2009,09,20,14,36,18.70
2009,09,20,14,37,18.70
2009,09,20,14,38,18.70
2009,09,20,14,39,18.70
2009,09,20,14,40,18.70
2009,09,20,14,41,18.70
2009,09,20,14,42,18.60
2009,09,20,14,43,18.60
2009,09,20,14,44,18.50
2009,09,20,14,45,18.50
2009,09,20,14,46,18.40
2009,09,20,14,47,18.40
2009,09,20,14,48,18.40
2009,09,20,14,49,18.30
2009,09,20,14,50,18.30
2009,09,20,14,51,18.30
2009,09,20,14,52,18.30
2009,09,20,14,53,18.30
2009,09,20,14,54,18.30
2009,09,20,14,55,18.20
2009,09,20,14,56,18.20
2009,09,20,14,57,18.20
2009,09,20,14,58,18.20
2009,09,20,14,59,18.20
2009,09,20,15,00,18.30
2009,09,20,15,01,18.30
2009,09,20,15,02,18.40
2009,09,20,15,03,18.50
2009,09,20,15,04,18.60
2009,09,20,15,05,18.70
2009,09,20,15,06,18.80
2009,09,20,15,07,19.00
2009,09,20,15,08,19.00
2009,09,20,15,09,19.10
2009,09,20,15,10,19.20
2009,09,20,15,11,19.20
2009,09,20,15,12,19.20
2009,09,20,15,13,19.30
2009,09,20,15,14,19.30
2009,09,20,15,15,19.30
2009,09,20,15,16,19.40
2009,09,20,15,17,19.40
2009,09,20,15,18,19.40
2009,09,20,15,19,19.40
2009,09,20,15,20,19.40
2009,09,20,15,21,19.40
2009,09,20,15,22,19.40
2009,09,20,15,23,19.40
2009,09,20,15,24,19.40
2009,09,20,15,25,19.50
2009,09,20,15,26,19.60
2009,09,20,15,27,19.60
2009,09,20,15,28,19.60
2009,09,20,15,29,19.70
2009,09,20,15,30,19.80
2009,09,20,15,31,19.80
2009,09,20,15,32,19.80
2009,09,20,15,33,19.70
2009,09,20,15,34,19.60
2009,09,20,15,35,19.50
2009,09,20,15,36,19.40
2009,09,20,15,37,19.30
2009,09,20,15,38,19.30
2009,09,20,15,39,19.30
2009,09,20,15,40,19.30
2009,09,20,15,41,19.30
2009,09,20,15,42,19.30
2009,09,20,15,43,19.40
2009,09,20,15,44,19.40
2009,09,20,15,45,19.40
2009,09,20,15,46,19.40
2009,09,20,15,47,19.40
2009,09,20,15,48,19.40
2009,09,20,15,49,19.30
2009,09,20,15,50,19.20
2009,09,20,15,51,19.20
2009,09,20,15,52,19.20
2009,09,20,15,53,19.20
2009,09,20,15,54,19.20
2009,09,20,15,55,19.20
2009,09,20,15,56,19.30
2009,09,20,15,57,19.30
2009,09,20,15,58,19.40
2009,09,20,15,59,19.30
2009,09,20,16,00,19.40
2009,09,20,16,01,19.30
2009,09,20,16,02,19.30
2009,09,20,16,03,19.40
2009,09,20,16,04,19.30
2009,09,20,16,05,19.30
2009,09,20,16,06,19.30
2009,09,20,16,07,19.30
2009,09,20,16,08,19.30
2009,09,20,16,09,19.30
2009,09,20,16,10,19.30
2009,09,20,16,11,19.30
2009,09,20,16,12,19.30
2009,09,20,16,13,19.20
2009,09,20,16,14,19.20
2009,09,20,16,15,19.20
2009,09,20,16,16,19.20
2009,09,20,16,17,19.20
2009,09,20,16,18,19.20
2009,09,20,16,19,19.20
2009,09,20,16,20,19.20
2009,09,20,16,21,19.20
2009,09,20,16,22,19.20
2009,09,20,16,23,19.20
2009,09,20,16,24,19.20
2009,09,20,16,25,19.20
2009,09,20,16,26,19.10
2009,09,20,16,27,19.10
2009,09,20,16,28,19.10
2009,09,20,16,29,19.10
2009,09,20,16,30,19.10
2009,09,20,16,31,19.00
2009,09,20,16,32,19.00
2009,09,20,16,33,18.90
2009,09,20,16,34,18.90
2009,09,20,16,35,18.90
2009,09,20,16,36,18.90
2009,09,20,16,37,18.80
2009,09,20,16,38,18.80
2009,09,20,16,39,18.70
2009,09,20,16,40,18.70
2009,09,20,16,41,18.70
2009,09,20,16,42,18.70
2009,09,20,16,43,18.70
2009,09,20,16,44,18.60
2009,09,20,16,45,18.60
2009,09,20,16,46,18.60
2009,09,20,16,47,18.70
2009,09,20,16,48,18.70
2009,09,20,16,49,18.70
2009,09,20,16,50,18.70
2009,09,20,16,51,18.70
2009,09,20,16,52,18.70
2009,09,20,16,53,18.60
2009,09,20,16,54,18.60
2009,09,20,16,55,18.60
2009,09,20,16,56,18.60
2009,09,20,16,57,18.60
2009,09,20,16,58,18.60
2009,09,20,16,59,18.60
2009,09,20,17,00,18.60
2009,09,20,17,01,18.50
2009,09,20,17,02,18.50
2009,09,20,17,03,18.50
2009,09,20,17,04,18.40
2009,09,20,17,05,18.40
2009,09,20,17,06,18.40
2009,09,20,17,07,18.40
2009,09,20,17,08,18.40
2009,09,20,17,09,18.40
2009,09,20,17,10,18.40
2009,09,20,17,11,18.50
2009,09,20,17,12,18.50
2009,09,20,17,13,18.60
2009,09,20,17,14,18.70
2009,09,20,17,15,18.80
2009,09,20,17,16,18.90
2009,09,20,17,17,18.90
2009,09,20,17,18,19.00
2009,09,20,17,19,19.00
2009,09,20,17,20,19.10
2009,09,20,17,21,19.20
2009,09,20,17,22,19.30
2009,09,20,17,23,19.30
2009,09,20,17,24,19.40
2009,09,20,17,25,19.40
2009,09,20,17,26,19.30
2009,09,20,17,27,19.30
2009,09,20,17,28,19.40
2009,09,20,17,29,19.30
2009,09,20,17,30,19.30
2009,09,20,17,31,19.30
2009,09,20,17,32,19.30
2009,09,20,17,33,19.30
2009,09,20,17,34,19.20
2009,09,20,17,35,19.20
2009,09,20,17,36,19.20